CW3065 Weather Reports


Display with metric or nautical units.
time (UTC)temp
F
wind
direction
speed
MPH
gust
MPH
rain 1hr
in
rain 24hr
in
rain mn
in
humidity
%
barometer
mb
20260510234004 57 127 7.0 12.0 0.00 0.10 0.04 52 1014.1
20260510233505 57 119 6.0 10.0 0.00 0.10 0.04 52 1014.1
20260510233005 57 129 7.0 14.0 0.00 0.10 0.04 52 1014.0
20260510232504 57 144 8.0 12.0 0.00 0.10 0.04 51 1014.0
20260510232004 57 124 7.0 12.0 0.00 0.10 0.04 52 1013.9
20260510231504 58 113 9.0 12.0 0.00 0.10 0.04 52 1013.9
20260510231004 58 116 9.0 12.0 0.00 0.10 0.04 52 1013.8
20260510230504 58 126 7.0 12.0 0.00 0.10 0.04 52 1013.8
20260510230004 58 100 7.0 10.0 0.00 0.10 0.04 51 1013.7
20260510225505 58 111 8.0 13.0 0.00 0.10 0.04 51 1013.6
20260510225005 58 107 6.0 13.0 0.00 0.10 0.04 52 1013.6
20260510224504 58 126 9.0 12.0 0.00 0.10 0.04 51 1013.5
20260510224004 58 129 6.0 12.0 0.00 0.10 0.04 51 1013.7
20260510223505 58 102 5.0 12.0 0.00 0.10 0.04 53 1013.6
20260510223004 58 113 9.0 13.0 0.00 0.10 0.04 51 1013.6
20260510222505 59 114 8.0 13.0 0.00 0.10 0.04 50 1013.5
20260510221504 59 101 5.0 10.0 0.00 0.10 0.04 51 1013.5
20260510220504 59 92 6.0 12.0 0.00 0.10 0.04 50 1013.5
20260510220004 59 101 6.0 12.0 0.00 0.10 0.04 52 1013.5
20260510215504 59 89 6.0 13.0 0.00 0.10 0.04 51 1013.5
20260510215004 59 96 6.0 12.0 0.00 0.10 0.04 52 1013.5
20260510214504 59 77 7.0 13.0 0.00 0.10 0.04 49 1013.5
20260510214004 60 75 10.0 15.0 0.00 0.10 0.04 49 1013.4
20260510213504 59 46 5.0 10.0 0.00 0.10 0.04 52 1013.5
20260510213004 59 74 5.0 10.0 0.00 0.10 0.04 51 1013.5
20260510212504 59 128 7.0 12.0 0.00 0.10 0.04 50 1013.5
20260510212004 59 128 8.0 12.0 0.00 0.10 0.04 52 1013.4
20260510211505 59 94 7.0 12.0 0.00 0.10 0.04 52 1013.5
20260510210504 59 102 5.0 12.0 0.00 0.10 0.04 53 1013.7
20260510210004 59 107 7.0 14.0 0.00 0.10 0.04 53 1013.6
20260510205504 59 99 8.0 12.0 0.00 0.10 0.04 52 1013.5
20260510203505 58 96 7.0 12.0 0.00 0.10 0.04 53 1013.2
20260510203005 60 126 8.0 14.0 0.00 0.10 0.04 50 1013.4
20260510202504 60 68 3.0 12.0 0.00 0.10 0.04 47 1013.2
20260510202004 60 36 5.0 12.0 0.00 0.10 0.04 51 1013.1
20260510201505 58 30 3.0 10.0 0.00 0.10 0.04 53 1013.3
20260510201004 58 102 7.0 12.0 0.00 0.10 0.04 53 1013.4
20260510200504 60 113 9.0 15.0 0.00 0.10 0.04 54 1013.3
20260510200005 60 26 7.0 14.0 0.00 0.10 0.04 51 1013.3
20260510195504 60 44 6.0 13.0 0.00 0.10 0.04 49 1013.4
20260510194504 58 51 5.0 15.0 0.00 0.10 0.04 55 1013.3
20260510194004 58 98 6.0 13.0 0.00 0.10 0.04 57 1013.2
20260510193504 59 88 7.0 12.0 0.00 0.10 0.04 53 1013.1
20260510192504 58 86 7.0 14.0 0.00 0.10 0.04 53 1013.2
20260510191005 58 49 9.0 14.0 0.00 0.10 0.04 56 1013.3
20260510190504 57 119 6.0 14.0 0.00 0.10 0.04 56 1013.3
20260510190005 57 91 8.0 13.0 0.00 0.10 0.04 55 1013.4
20260510185505 57 104 9.0 16.0 0.00 0.10 0.04 54 1013.4
20260510184505 58 84 9.0 16.0 0.00 0.10 0.04 52 1013.4
20260510184004 58 28 10.0 15.0 0.00 0.10 0.04 53 1013.4
20260510183504 57 28 9.0 13.0 0.00 0.10 0.04 54 1013.6
20260510183004 58 60 8.0 17.0 0.00 0.10 0.04 53 1013.5
20260510182504 57 27 6.0 13.0 0.00 0.10 0.04 55 1013.7
20260510182004 57 89 6.0 14.0 0.00 0.10 0.04 52 1013.7
20260510181505 58 67 5.0 12.0 0.00 0.10 0.04 48 1013.7
20260510180504 58 33 5.0 12.0 0.00 0.10 0.04 51 1013.8
20260510180004 57 30 5.0 12.0 0.00 0.10 0.04 51 1013.7
20260510175504 56 33 9.0 13.0 0.00 0.10 0.04 50 1013.8
20260510175004 56 99 6.0 14.0 0.00 0.10 0.04 50 1013.8
20260510174504 56 97 7.0 14.0 0.00 0.10 0.04 52 1013.8
20260510174004 56 103 7.0 12.0 0.00 0.10 0.04 52 1013.8
20260510173005 55 51 6.0 12.0 0.00 0.10 0.04 49 1013.9
20260510172004 55 78 6.0 12.0 0.00 0.10 0.04 48 1013.8
20260510171504 55 97 5.0 10.0 0.00 0.10 0.04 51 1013.8
20260510171004 55 100 3.0 7.0 0.00 0.10 0.04 50 1013.9
20260510170504 55 105 3.0 8.0 0.00 0.10 0.04 48 1013.9
20260510170004 54 24 7.0 12.0 0.00 0.10 0.04 52 1013.9
20260510165504 53 102 3.0 7.0 0.00 0.10 0.04 51 1014.0
20260510165004 53 134 5.0 9.0 0.00 0.10 0.04 47 1014.0
20260510164504 53 104 5.0 12.0 0.00 0.10 0.04 50 1014.0
20260510164004 53 130 4.0 7.0 0.00 0.10 0.04 48 1014.0
20260510163505 53 79 1.0 5.0 0.00 0.10 0.04 51 1014.0
20260510163005 53 106 1.0 6.0 0.00 0.10 0.04 48 1014.0
20260510162504 52 46 1.0 6.0 0.00 0.10 0.04 51 1014.0
20260510162004 52 128 3.0 6.0 0.00 0.10 0.04 50 1014.0
20260510161504 52 90 5.0 12.0 0.00 0.10 0.04 51 1014.0
20260510161009 51 99 6.0 9.0 0.00 0.10 0.04 54 1013.9
20260510160504 51 167 4.0 10.0 0.00 0.10 0.04 53 1013.9
20260510160004 51 120 4.0 10.0 0.01 0.10 0.04 52 1013.8
20260510155505 51 136 3.0 5.0 0.01 0.10 0.04 55 1013.6
20260510154004 50 151 2.0 6.0 0.01 0.10 0.04 53 1013.4
20260510153504 50 127 2.0 5.0 0.01 0.10 0.04 55 1013.4
20260510153004 49 146 0.0 3.0 0.01 0.10 0.04 56 1013.4
20260510152504 49 144 2.0 3.0 0.01 0.10 0.04 54 1013.4
20260510152004 49 102 1.0 5.0 0.01 0.10 0.04 57 1013.4
20260510151004 50 151 1.0 3.0 0.01 0.10 0.04 53 1013.4
20260510150504 50 54 0.0 3.0 0.01 0.10 0.04 53 1013.4
20260510150004 49 77 1.0 2.0 0.01 0.10 0.04 54 1013.3
20260510145504 49 76 1.0 2.0 0.00 0.09 0.03 56 1013.3
20260510144504 49 17 0.0 2.0 0.00 0.09 0.03 60 1013.3
20260510144004 48 35 0.0 3.0 0.00 0.09 0.03 65 1013.2
20260510143005 46 23 3.0 5.0 0.00 0.09 0.03 76 1013.3
20260510142504 44 166 0.0 2.0 0.00 0.09 0.03 69 1013.4
20260510141005 43 175 1.0 2.0 0.00 0.09 0.03 74 1013.4
20260510140004 42 176 3.0 3.0 0.00 0.09 0.03 76 1013.4
20260510135505 42 165 2.0 5.0 0.00 0.09 0.03 78 1013.4
20260510135004 41 213 2.0 3.0 0.00 0.09 0.03 79 1013.4
20260510134504 41 223 1.0 3.0 0.00 0.09 0.03 81 1013.4
20260510133504 40 212 1.0 3.0 0.00 0.09 0.03 85 1013.4
20260510133004 40 222 3.0 3.0 0.00 0.09 0.03 87 1013.4
20260510131504 38 215 3.0 5.0 0.00 0.09 0.03 89 1013.5
20260510131004 38 202 3.0 5.0 0.00 0.09 0.03 90 1013.4
20260510130505 37 247 4.0 6.0 0.00 0.09 0.03 91 1013.4
20260510130004 37 222 3.0 3.0 0.00 0.09 0.03 91 1013.3
20260510125504 37 233 3.0 6.0 0.00 0.09 0.03 91 1013.2
20260510125004 37 219 3.0 6.0 0.00 0.09 0.03 91 1013.2
20260510124505 37 220 2.0 3.0 0.00 0.09 0.03 92 1013.2
20260510123505 36 228 1.0 3.0 0.00 0.09 0.03 93 1013.3
20260510123004 36 228 1.0 3.0 0.00 0.09 0.03 93 1013.3
20260510122504 36 265 0.0 0.0 0.00 0.09 0.03 93 1013.3
20260510122005 37 265 0.0 2.0 0.00 0.09 0.03 94 1013.3
20260510121504 37 265 2.0 3.0 0.00 0.09 0.03 94 1013.2
20260510120505 37 235 3.0 6.0 0.00 0.09 0.03 94 1013.2
20260510120004 37 243 2.0 3.0 0.00 0.09 0.03 95 1013.2
20260510115504 37 246 3.0 5.0 0.00 0.09 0.03 94 1013.2
20260510115004 36 329 2.0 3.0 0.00 0.09 0.03 94 1012.9
20260510114004 36 5 1.0 3.0 0.00 0.09 0.03 93 1012.8
20260510113505 36 7 0.0 3.0 0.00 0.09 0.03 93 1012.8
20260510113005 37 7 0.0 0.0 0.00 0.09 0.03 93 1012.8
20260510112505 37 7 1.0 2.0 0.00 0.09 0.03 94 1012.8
20260510112004 37 344 2.0 3.0 0.00 0.09 0.03 94 1012.7
20260510111504 37 344 1.0 3.0 0.00 0.09 0.03 94 1012.6
20260510111004 37 344 0.0 0.0 0.00 0.09 0.03 94 1012.6
20260510110504 37 344 0.0 0.0 0.00 0.09 0.03 94 1012.4
20260510110005 37 344 0.0 3.0 0.00 0.09 0.03 94 1012.3
20260510105505 37 344 2.0 3.0 0.00 0.09 0.03 94 1012.2
20260510105004 37 358 0.0 3.0 0.00 0.09 0.03 94 1012.1
20260510104505 37 11 0.0 0.0 0.00 0.09 0.03 94 1012.1
20260510104004 37 11 0.0 0.0 0.00 0.09 0.03 94 1012.1
20260510103005 37 11 0.0 0.0 0.00 0.09 0.03 94 1012.1
20260510101504 37 11 0.0 0.0 0.00 0.09 0.03 93 1012.2
20260510101004 37 338 0.0 2.0 0.00 0.09 0.03 93 1012.2
20260510100505 37 264 0.0 0.0 0.00 0.09 0.03 93 1012.2
20260510100004 37 264 0.0 3.0 0.00 0.09 0.03 93 1012.2
20260510095504 37 264 2.0 3.0 0.00 0.09 0.03 93 1012.1
20260510095005 37 264 2.0 3.0 0.00 0.09 0.03 93 1011.7
20260510094504 37 342 1.0 3.0 0.00 0.09 0.03 93 1011.6
20260510094004 37 342 2.0 3.0 0.00 0.09 0.03 92 1011.6
20260510093504 37 342 2.0 3.0 0.00 0.09 0.03 92 1011.6
20260510093004 37 342 2.0 3.0 0.00 0.09 0.03 91 1011.4
20260510092505 37 58 0.0 0.0 0.00 0.09 0.03 91 1011.4
20260510092004 37 58 0.0 0.0 0.00 0.09 0.03 91 1011.3
20260510091505 38 78 0.0 0.0 0.00 0.09 0.03 91 1011.1
20260510091004 38 84 0.0 0.0 0.00 0.09 0.03 92 1011.0
20260510090504 38 84 0.0 0.0 0.00 0.09 0.03 92 1011.0
20260510090004 38 80 1.0 2.0 0.00 0.09 0.03 92 1011.0
20260510085504 38 354 0.0 0.0 0.00 0.09 0.03 92 1011.0
20260510085004 38 354 0.0 0.0 0.00 0.09 0.03 92 1011.0
20260510084505 38 354 0.0 0.0 0.00 0.09 0.03 92 1011.0
20260510084004 38 354 0.0 0.0 0.00 0.09 0.03 93 1011.0
20260510083504 38 354 1.0 2.0 0.00 0.09 0.03 92 1011.0
20260510083004 38 354 0.0 0.0 0.00 0.09 0.03 92 1011.0
20260510082504 38 354 0.0 0.0 0.00 0.09 0.03 92 1010.9
20260510082004 38 354 0.0 0.0 0.00 0.09 0.03 92 1010.9
20260510081504 38 354 0.0 0.0 0.00 0.09 0.03 92 1010.9
20260510081005 38 354 0.0 0.0 0.00 0.09 0.03 92 1010.9
20260510080504 38 354 0.0 0.0 0.00 0.09 0.03 93 1010.9
20260510080004 38 354 0.0 0.0 0.00 0.09 0.03 92 1010.9
20260510075504 38 354 0.0 2.0 0.00 0.09 0.03 92 1010.9
20260510074504 38 354 1.0 3.0 0.00 0.09 0.03 92 1010.9
20260510074004 38 354 3.0 6.0 0.00 0.09 0.03 92 1010.9
20260510073005 38 81 2.0 5.0 0.00 0.09 0.03 92 1010.8
20260510072004 38 17 6.0 9.0 0.00 0.09 0.03 92 1010.9
20260510070504 38 6 4.0 6.0 0.03 0.09 0.03 92 1011.0
20260510070004 38 27 3.0 6.0 0.03 0.09 0.03 91 1011.0
20260510065504 38 36 3.0 6.0 0.02 0.09 0.03 91 1011.0
20260510065004 38 0 5.0 6.0 0.03 0.09 0.03 91 1011.1
20260510064504 38 13 4.0 7.0 0.04 0.09 0.03 91 1011.1
20260510064004 38 1 3.0 6.0 0.05 0.09 0.03 91 1011.1
20260510063005 38 357 5.0 6.0 0.00 0.09 0.03 90 1011.0
20260510062505 38 9 4.0 6.0 0.00 0.09 0.03 90 1011.0
20260510062004 39 1 4.0 6.0 0.00 0.10 0.03 90 1011.1
20260510061505 39 349 5.0 7.0 0.06 0.09 0.02 89 1011.4
20260510061004 39 348 6.0 9.0 0.05 0.08 0.01 90 1011.4
20260510060505 39 348 6.0 8.0 0.04 0.07 0.00 90 1011.3
20260510060005 39 356 4.0 6.0 0.04 0.07 0.00 89 1011.1
20260510055504 39 52 2.0 3.0 0.04 0.07 0.07 88 1011.0
20260510055004 39 118 2.0 3.0 0.03 0.06 0.06 88 1011.0
20260510054504 39 118 3.0 3.0 0.02 0.05 0.05 87 1011.1
20260510054004 39 107 3.0 5.0 0.01 0.04 0.04 86 1011.4
20260510053505 40 136 3.0 5.0 0.01 0.04 0.04 86 1011.5
20260510053004 40 122 5.0 7.0 0.01 0.03 0.03 86 1011.4
20260510052504 40 138 7.0 8.0 0.01 0.03 0.03 85 1011.2
20260510052005 40 138 6.0 9.0 0.01 0.03 0.03 85 1011.2
20260510051504 40 143 3.0 7.0 0.02 0.03 0.03 85 1011.1
20260510051004 40 135 2.0 6.0 0.02 0.03 0.03 85 1011.1
20260510050505 40 142 6.0 12.0 0.02 0.03 0.03 85 1010.9
20260510050005 41 141 5.0 9.0 0.03 0.03 0.03 85 1010.9
20260510045004 41 128 7.0 12.0 0.03 0.03 0.03 85 1010.6
20260510044005 41 115 4.0 8.0 0.03 0.03 0.03 88 1010.7
20260510043504 41 129 7.0 12.0 0.03 0.03 0.03 87 1010.7
20260510043005 41 128 5.0 7.0 0.02 0.02 0.02 88 1010.6
20260510042504 41 123 4.0 6.0 0.02 0.02 0.02 87 1010.7
20260510042004 42 102 5.0 12.0 0.02 0.02 0.02 86 1010.7
20260510041004 42 117 9.0 14.0 0.01 0.01 0.01 84 1010.7
20260510040505 43 118 8.0 13.0 0.01 0.01 0.01 82 1010.5
20260510040004 43 110 7.0 12.0 0.00 0.00 0.00 81 1010.6
20260510035504 43 119 4.0 7.0 0.00 0.00 0.00 79 1010.6
20260510035005 44 136 5.0 10.0 0.00 0.00 0.00 78 1010.6
20260510034504 44 113 5.0 13.0 0.00 0.00 0.00 76 1010.3
20260510034005 44 95 3.0 9.0 0.00 0.00 0.00 75 1010.1
20260510033505 44 40 3.0 7.0 0.00 0.00 0.00 75 1010.1
20260510033005 44 91 3.0 6.0 0.00 0.00 0.00 73 1009.9
20260510032504 45 90 4.0 7.0 0.00 0.00 0.00 73 1009.7
20260510032004 45 132 3.0 5.0 0.00 0.00 0.00 71 1009.7
20260510031504 45 135 4.0 8.0 0.00 0.00 0.00 71 1009.5
20260510031005 45 116 5.0 9.0 0.00 0.00 0.00 70 1009.1
20260510030005 45 125 9.0 12.0 0.00 0.00 0.00 69 1009.0
20260510025504 45 148 8.0 12.0 0.00 0.00 0.00 68 1009.1
20260510025005 46 129 5.0 10.0 0.00 0.00 0.00 67 1009.3
20260510024504 46 101 9.0 13.0 0.00 0.00 0.00 67 1009.3
20260510024004 45 151 8.0 13.0 0.00 0.00 0.00 67 1008.5
20260510023504 45 118 7.0 12.0 0.00 0.00 0.00 69 1008.1
20260510023004 45 129 8.0 14.0 0.00 0.00 0.00 70 1007.6
20260510022504 45 126 10.0 16.0 0.00 0.00 0.00 72 1007.4
20260510022004 44 141 10.0 17.0 0.00 0.00 0.00 73 1007.0
20260510021504 45 115 7.0 13.0 0.00 0.00 0.00 73 1006.7
20260510021005 45 89 8.0 15.0 0.00 0.00 0.00 72 1006.3
20260510020505 45 87 9.0 14.0 0.00 0.00 0.00 71 1006.2
20260510020005 45 88 12.0 17.0 0.00 0.00 0.00 71 1006.2
20260510015504 45 79 12.0 16.0 0.00 0.00 0.00 70 1006.2
20260510015004 46 89 12.0 18.0 0.00 0.00 0.00 69 1005.9
20260510014504 46 78 12.0 17.0 0.00 0.00 0.00 68 1006.1
20260510014004 46 49 12.0 20.0 0.00 0.00 0.00 67 1006.1
20260510013504 47 71 18.0 25.0 0.00 0.00 0.00 66 1005.5
20260510013005 47 95 16.0 23.0 0.00 0.00 0.00 64 1004.9
20260510012504 49 95 10.0 24.0 0.00 0.00 0.00 62 1005.0
20260510012004 50 56 10.0 15.0 0.00 0.00 0.00 60 1004.9
20260510011504 50 0 12.0 18.0 0.00 0.00 0.00 59 1004.9
20260510011004 51 52 12.0 18.0 0.00 0.00 0.00 57 1004.8
20260510010504 51 80 10.0 18.0 0.00 0.00 0.00 55 1004.6
20260510010004 53 55 9.0 17.0 0.00 0.00 0.00 53 1004.6
20260510005504 53 25 10.0 17.0 0.00 0.00 0.00 52 1004.5
20260510005004 54 16 8.0 14.0 0.00 0.00 0.00 49 1004.6
20260510004504 54 328 3.0 18.0 0.00 0.00 0.00 50 1004.6
20260510004005 54 82 10.0 20.0 0.00 0.00 0.00 49 1004.4
20260510003504 55 86 13.0 20.0 0.00 0.00 0.00 46 1004.3
20260510003004 58 63 10.0 16.0 0.00 0.00 0.00 42 1004.4
20260510002505 61 112 6.0 12.0 0.00 0.00 0.00 37 1004.6
20260510002005 63 2 2.0 10.0 0.00 0.00 0.00 20 1004.3
20260510001504 62 224 7.0 12.0 0.00 0.00 0.00 18 1004.3
20260510001005 62 232 7.0 15.0 0.00 0.00 0.00 18 1004.3
20260510000504 62 260 5.0 16.0 0.00 0.00 0.00 19 1004.3
20260509235504 62 222 10.0 15.0 0.00 0.00 0.00 16 1004.1
20260509235005 63 220 5.0 13.0 0.00 0.00 0.00 18 1004.1
20260509234504 63 253 6.0 17.0 0.00 0.00 0.00 19 1004.2